Regional Weather Roundup
Issued by NWS

Home | Current Version | Previous Version | Graphics & Text | Print | Product List | Glossary On
Versions: 1 2 3 4 5 6 7 8 9 10 11 12 13 14 15 16 17 18 19 20 21 22 23 24 25 26 27 28 29 30 31 32 33 34 35 36 37 38 39 40 41 42 43 44 45 46 47 48 49 50
113
ASUS43 KTOP 250259
RWRKS

WEATHER ROUNDUP FOR KANSAS
NATIONAL WEATHER SERVICE GOODLAND KS
1000 PM CDT MON JUL 24 2017

NOTE:  "FAIR" INDICATES FEW OR NO CLOUDS BELOW 12,000 FEET WITH NO
SIGNIFICANT WEATHER AND/OR OBSTRUCTIONS TO VISIBILITY.

KSZ001>006-013>018-027>032-041>047-250400-
NORTHWEST KANSAS

CITY           SKY/WX    TMP DP  RH WIND       PRES   REMARKS
GOODLAND       CLEAR     81  61  50 S16       29.99R
HAYS             N/A     83  53  35 S10       29.96R
HILL CITY      PTCLDY    85  54  34 S10       29.95R
RUSSELL        PTCLDY    85  62  46 SE12      29.95R
$$

KSZ061>065-074>080-084>089-250400-
SOUTHWEST KANSAS

CITY           SKY/WX    TMP DP  RH WIND       PRES   REMARKS
DODGE CITY     CLEAR     81  53  37 SE10      30.00R HAZE
ELKHART          N/A     77  56  48 SE13        N/A
GARDEN CITY    CLEAR     80  56  43 SE10      30.00R
GREAT BEND     CLEAR     81  58  45 S8        29.97R
LIBERAL        CLEAR     83  64  52 S12       30.02R
$$

KSZ066>073-081>083-090>101-250400-
SOUTHEAST KANSAS

CITY           SKY/WX    TMP DP  RH WIND       PRES   REMARKS
CHANUTE        CLEAR     81  72  74 S5        29.98R
COFFEYVILLE    CLEAR     83  72  69 S5        29.96R
HUTCHINSON     CLEAR     82  66  58 E8        29.96R
MEDICINE LODGE   N/A     86  62  44 SE7       29.96R
NEWTON         CLEAR     79  72  79 SE9       29.99R
PARSONS        CLEAR     77  74  90 CALM      29.98R
WICHITA INTL   CLEAR     84  68  58 S9        29.96R
WICHITA JABRA  CLEAR     84  69  60 SE6       29.97R
WICHITA MCCONL CLEAR     86  67  53 S8        29.97R
WINFIELD       CLEAR     83  67  58 SE5       29.98R
$$

KSZ007>012-019>026-033>040-048>060-102>105-250400-
NORTHEAST KANSAS

CITY           SKY/WX    TMP DP  RH WIND       PRES   REMARKS
CONCORDIA      CLEAR     80  73  79 SE8       29.95R
EMPORIA        CLEAR     82  73  74 S5        29.97R
LAWRENCE       PTCLDY    78  71  79 NE7       29.98R
MANHATTAN      CLEAR     82  74  76 SE3       29.95R
OLATHE IND     CLEAR     78  70  76 E7        30.00R
OLATHE EXE     CLEAR     77  69  76 E7        30.00R
SALINA         CLEAR     87  67  51 SE12      29.95R
TOPEKA BILLARD CLEAR     80  75  84 E6        29.97R
TOPEKA FORBES  CLEAR     81  74  79 E6        29.98R
$$




USA.gov is the U.S. government's official web portal to all federal, state and local government web resources and services.